Belize, Belize

6:28 PM CST on August 26, 2016 (GMT -0600)
Philip S W Goldson International

Weather History for MZBZ - October, 2012

Change the Weather History Date:

Wednesday, October 3, 2012

  Actual Average Record
Temperature  
Mean Temperature 80 °F -  
Max Temperature 85 °F 87 °F 90 °F (2015)
Min Temperature 74 °F 73 °F 73 °F (2007)
Cooling Degree Days 14    
Growing Degree Days 30 (Base 50)    
Moisture  
Dew Point 76 °F    
Average Humidity 86    
Maximum Humidity 100    
Minimum Humidity 69    
Precipitation  
Precipitation 1.18 in 0.33 in - ()
Sea Level Pressure  
Sea Level Pressure 29.97 in    
Wind  
Wind Speed 4 mph ()    
Max Wind Speed 9 mph    
Max Gust Speed -    
Visibility 7.2 miles    
Events Rain , Thunderstorm    
Averages and records for this station are not official NWS values.
T = Trace of Precipitation, MM = Missing Value Source: Averaged Metar Reports

Daily Weather History Graph

Daily Weather History Graph

Search for Another Location

Airport or City:

Trip Planner

Search our weather history database for the weather conditions in past years. The results will help you decide how hot, cold, wet, or windy it might be!

Date:

Astronomy

Oct. 03, 2012 Rise Set
Actual Time 5:43 AM CST 5:39 PM CST
Civil Twilight 5:22 AM CST 6:01 PM CST
Nautical Twilight 4:57 AM CST 6:26 PM CST
Astronomical Twilight 4:31 AM CST 6:51 PM CST
Moon 8:07 PM CST (10/3) 8:33 AM CST (10/3)
Length of Visible Light 12h 39m
Length of Day
11h 55m
Waning Gibbous, 88% of the Moon is Illuminated
Oct 3
Waning Gibbous
Oct 8
Last Quarter
Oct 15
New
Oct 21
First Quarter
Oct 29
Full

Hourly Weather History & Observations

Time (CST) Temp. Heat Index Dew Point Humidity Pressure Visibility Wind Dir Wind Speed Gust Speed Precip Events Conditions
12:00 AM 78 °F - 77 °F 94% 29.93 in 12 mi WNW 4.6 mph - -  
3:00 AM 74 °F - 73 °F 96% 29.95 in 1 mi West 6.9 mph - - Rain , Thunderstorm Thunderstorms and Rain
3:00 AM - - - N/A% - 6.2 mi NNE 5.8 mph - N/A   Mostly Cloudy
5:00 AM 75.2 °F - 73.4 °F 94% 29.94 in 3.7 mi NNW 4.6 mph - N/A Rain Rain
6:00 AM 75 °F - 75 °F 100% 29.96 in 6 mi NNW 3.5 mph - - Rain Light Rain
6:00 AM 75.2 °F - 75.2 °F 100% 29.95 in 6.2 mi NNW 3.5 mph - N/A Rain Rain
7:00 AM 75.2 °F - 75.2 °F 100% 30.00 in 6.2 mi Calm Calm - N/A Rain Rain
8:00 AM 75.2 °F - 75.2 °F 100% 30.00 in 6.2 mi North 5.8 mph - N/A Rain Light Rain
9:00 AM 78 °F - 75 °F 88% 30.03 in 10 mi North 3.5 mph - - Rain Light Rain Showers
9:00 AM 77.0 °F - 75.2 °F 94% 30.02 in 6.2 mi North 3.5 mph - N/A Rain Light Rain Showers
10:00 AM 80.6 °F 86.2 °F 75.2 °F 84% 30.02 in 6.2 mi North 4.6 mph - N/A   Mostly Cloudy
11:00 AM 84.2 °F 92.3 °F 75.2 °F 74% 30.00 in 6.2 mi ENE 4.6 mph - N/A   Mostly Cloudy
12:00 PM 85 °F - 76 °F 69% 29.98 in 12 mi NE 4.6 mph - -   Partly Cloudy
12:00 PM 84.2 °F 94.1 °F 77.0 °F 79% 29.97 in 6.2 mi NE 4.6 mph - N/A   Mostly Cloudy
1:00 PM 84.2 °F 94.1 °F 77.0 °F 79% 29.95 in 6.2 mi ENE 5.8 mph - N/A   Mostly Cloudy
2:00 PM 84.2 °F 92.3 °F 75.2 °F 74% 29.93 in 6.2 mi ENE 8.1 mph - N/A   Mostly Cloudy
3:00 PM 85 °F - 76 °F 69% 29.93 in 12 mi ENE 9.2 mph - -   Partly Cloudy
3:00 PM 84.2 °F 94.1 °F 77.0 °F 79% 29.93 in 6.2 mi ENE 9.2 mph - N/A   Mostly Cloudy
4:00 PM 84.2 °F 94.1 °F 77.0 °F 79% 29.92 in 6.2 mi East 5.8 mph - N/A   Mostly Cloudy
5:00 PM 82.4 °F 90.9 °F 77.0 °F 84% 29.94 in 6.2 mi East 5.8 mph - N/A   Mostly Cloudy
6:00 PM 82 °F - 77 °F 81% 29.96 in 12 mi East 4.6 mph - -   Scattered Clouds
6:00 PM 82.4 °F 90.9 °F 77.0 °F 84% 29.95 in 6.2 mi East 4.6 mph - N/A   Mostly Cloudy
9:00 PM 81 °F - 77 °F 83% 30.02 in 9 mi Calm Calm - - Rain Light Rain Showers